Location: Unspecified
(29.9680°N, 0.0000°E)
Time: 10:11:25
(UTC+00:00)

Explorer 7 - Pass Details

Date: 26 June 2019
Orbit: 485 x 680 km, 50.3° (Epoch: 24 August)

Event Time Altitude Azimuth Distance (km) Brightness Sun altitude
Rises 12:23:38 0° 328° (NNW) 2,929 10.5 81.9°
Reaches altitude 10° 12:26:43 10° 349° (N) 2,052 9.8 81.5°
Maximum altitude 12:29:46 17° 30° (NNE) 1,671 9.4 81.1°
Drops below altitude 10° 12:32:53 10° 70° (ENE) 2,097 9.8 80.6°
Sets 12:36:04 0° 90° (E) 3,022 10.5 80.1°
